Volver al catálogo

AYAME 2 DEB

ActivoHEO
NORAD 28999·DEBRIS·🇯🇵 Japan

Lanzado Feb 22, 1980 desde Tanegashima Space Center

Loading…

Próximos Pases (próximas 24 horas)

TLE

ActualizadoSource: Space-Track

Época: Sep 13, 2026, 11:33 UTC

1 28999U 80018D   26256.48157340 -.00000156  00000-0  00000+0 0  9999
2 28999   9.4131  28.5871 4331194 316.1877  16.6133  1.75811653134214

Sigue AYAME 2 DEB en tiempo real con AllMySat

Download on the App Store